User: anonymous   Login
Location: Unspecified
(0.0000°N, 0.0000°E)
Time: 22:23:42
(UTC+00:00)
Language:

COMSATBw-1 - Orbit

View from above orbital plane
View from above orbital plane
View from above satellite
View from above satellite

Ground track
Ground track

The orbit data is extracted from the following two-line orbital elements,

1 35943U 09054B   19202.92083382 +.00000022 +00000-0 +00000-0 0  9995
2 35943 000.0243 056.0399 0003013 060.0647 217.8021 01.00270652036000
Epoch (UTC): 21 July 2019 22:06:00
Eccentricity: 0.0003013
inclination: 0.0243°
perigee height: 35774 km
apogee height: 35799 km
right ascension of ascending node: 56.0399°
argument of perigee: 60.0647°
revolutions per day: 1.00270652
mean anomaly at epoch: 217.8021°
orbit number at epoch: 3600

The dashed part of the orbit path shows where the satellite is in the earth's shadow,  

DLR